Starlink 5131

operational
NORAD ID: 53996 Int'l Des: 2022-125 Owner: SPXS Country: US Constellation: starlink
LEOCIRCULAR

关于 Starlink 5131

正在加载描述...

实时位置

正在加载3D地球...

即将过境

高度历史

Altitude vs Time

uPlot chart will show altitude changes over time

两行轨道根数

1 53996U 22125AJ 25260.06677925 -.00000324 00000-0 -22931-5 0 9994
2 53996 53.2144 273.3841 0001367 83.0925 277.0223 15.08835365163259
Epoch: Sep 17, 2025 • Age: 33 hours

当前状态

高度 550.8 km
速度 7.59 km/s
星下点 -33.00°S, 37.17°W
发射日期 Oct 5, 2022
运行时间 2.9 years
类型 internet

技术详情

分类 Payload
质量 305.00 kg
干质量 290.00 kg
总质量 305.00 kg
长度 0.20 m
直径 2.80 m
跨度 9.00 m
形状 Box + pan
制造商 SPXS
平台类型 Starlink
阶段状态 In Orbit
所有者/国家 SPXS/US

大型星座

Loading constellations...